User: anonymous   Login
Location: Roanoke
(37.2710°N, 79.9420°W)
Time: 22:34:47
(UTC-05:00)
Language:

Cosmos 1441 Rocket - Orbit

View from above orbital plane
View from above orbital plane
View from above satellite
View from above satellite

Ground track
Ground track

The orbit data is extracted from the following two-line orbital elements,

1 13819U 83010B   17020.82217624  .00000343  00000-0  16854-4 0  9994
2 13819  81.1168 331.6332 0034151 108.7984 251.6954 15.14753420851414
Epoch (UTC): 20 January 2017 19:43:56
Eccentricity: 0.0034151
inclination: 81.1168°
perigee height: 498 km
apogee height: 545 km
right ascension of ascending node: 331.6332°
argument of perigee: 108.7984°
revolutions per day: 15.14753420
mean anomaly at epoch: 251.6954°
orbit number at epoch: 85141

The dashed part of the orbit path shows where the satellite is in the earth's shadow,  

DLR